QPF
0.00 0.02 0.03 0.01 0.00 0.00 0.00 0.00 0.00 0.00 0.01 0.02 0.02 0.02 0.01 0.02 0.03 0.03 0.03 0.02 0.02 0.02 0.00 0.00 0.00 0.00 0.00 0.01 0.00 0.00 0.00 0.00 0.00 0.00 0.00 0.00 0.00 0.01 0.00 0.00 0.01 0.01 0.01
0.00 0.01 0.02 0.01 0.00 0.00 0.00 0.00 0.00 0.00 0.02 0.03 0.03 0.03 0.03 0.03 0.03 0.02 0.02 0.02 0.02 0.01 0.01 0.01 0.00 0.00 0.00 0.00 0.00 0.00 0.00 0.00 0.00 0.00 0.00 0.00 0.00 0.00 0.00 0.00 0.01 0.01 0.01
0.00 0.01 0.02 0.01 0.00 0.00 0.00 0.00 0.00 0.01 0.02 0.04 0.04 0.04 0.04 0.04 0.03 0.02 0.03 0.02 0.01 0.00 0.00 0.00 0.00 0.00 0.00 0.00 0.00 0.00 0.00 0.00 0.00 0.00 0.00 0.00 0.00 0.00 0.00 0.00 0.01 0.01 0.01
0.01 0.02 0.02 0.01 0.01 0.00 0.00 0.00 0.00 0.01 0.03 0.04 0.05 0.05 0.05 0.04 0.03 0.03 0.02 0.01 0.00 0.00 0.00 0.00 0.00 0.00 0.00 0.00 0.00 0.00 0.00 0.00 0.00 0.00 0.00 0.00 0.00 0.00 0.00 0.00 0.00 0.01 0.01
0.02 0.02 0.02 0.02 0.01 0.00 0.00 0.00 0.00 0.01 0.02 0.04 0.06 0.06 0.05 0.04 0.04 0.03 0.01 0.00 0.00 0.00 0.00 0.00 0.00 0.00 0.00 0.00 0.00 0.00 0.00 0.00 0.00 0.00 0.00 0.00 0.00 0.00 0.00 0.00 0.00 0.00 0.01
0.03 0.03 0.03 0.02 0.01 0.00 0.01 0.01 0.01 0.01 0.02 0.04 0.07 0.07 0.05 0.04 0.03 0.01 0.00 0.00 0.00 0.00 0.00 0.00 0.00 0.00 0.00 0.00 0.00 0.00 0.00 0.00 0.00 0.00 0.00 0.00 0.00 0.00 0.00 0.00 0.00 0.00 0.00
0.04 0.04 0.04 0.03 0.01 0.01 0.01 0.01 0.01 0.01 0.02 0.05 0.07 0.05 0.04 0.02 0.01 0.00 0.00 0.00 0.00 0.00 0.00 0.00 0.00 0.00 0.00 0.00 0.00 0.00 0.00 0.00 0.00 0.00 0.00 0.00 0.00 0.00 0.00 0.00 0.00 0.00 0.00
0.07 0.07 0.06 0.04 0.02 0.01 0.01 0.01 0.01 0.01 0.02 0.05 0.07 0.04 0.03 0.01 0.00 0.00 0.00 0.00 0.00 0.00 0.00 0.00 0.00 0.00 0.00 0.00 0.00 0.00 0.00 0.00 0.00 0.00 0.00 0.00 0.00 0.00 0.00 0.00 0.00 0.00 0.00
0.15 0.11 0.08 0.06 0.03 0.02 0.02 0.01 0.01 0.01 0.02 0.04 0.06 0.03 0.01 0.00 0.00 0.00 0.00 0.00 0.00 0.00 0.00 0.00 0.00 0.00 0.00 0.00 0.00 0.00 0.00 0.00 0.00 0.00 0.00 0.00 0.00 0.00 0.00 0.00 0.00 0.00 0.00
0.23 0.17 0.11 0.08 0.04 0.02 0.02 0.02 0.01 0.01 0.02 0.03 0.03 0.02 0.01 0.00 0.00 0.00 0.00 0.00 0.00 0.00 0.00 0.00 0.00 0.00 0.00 0.00 0.00 0.00 0.00 0.00 0.00 0.00 0.00 0.00 0.00 0.00 0.00 0.00 0.00 0.00 0.00
0.26 0.22 0.16 0.08 0.04 0.03 0.03 0.02 0.01 0.01 0.02 0.02 0.02 0.01 0.01 0.00 0.00 0.00 0.00 0.00 0.00 0.00 0.00 0.00 0.00 0.00 0.00 0.00 0.00 0.00 0.00 0.00 0.00 0.00 0.00 0.00 0.00 0.00 0.00 0.00 0.00 0.00 0.00
0.27 0.21 0.19 0.11 0.05 0.03 0.03 0.03 0.02 0.02 0.02 0.02 0.01 0.01 0.00 0.00 0.00 0.00 0.00 0.00 0.00 0.00 0.00 0.00 0.00 0.00 0.00 0.00 0.00 0.00 0.00 0.00 0.00 0.00 0.00 0.00 0.00 0.00 0.00 0.00 0.00 0.00 0.00
0.26 0.22 0.19 0.15 0.08 0.04 0.03 0.03 0.01 0.01 0.01 0.01 0.01 0.00 0.00 0.00 0.00 0.00 0.00 0.00 0.00 0.00 0.00 0.00 0.00 0.00 0.00 0.00 0.00 0.00 0.00 0.00 0.00 0.00 0.00 0.00 0.00 0.00 0.00 0.00 0.00 0.00 0.00
0.31 0.23 0.20 0.18 0.11 0.05 0.04 0.02 0.01 0.01 0.01 0.01 0.01 0.00 0.00 0.00 0.00 0.00 0.00 0.00 0.00 0.00 0.00 0.00 0.00 0.00 0.00 0.00 0.00 0.00 0.00 0.00 0.00 0.00 0.00 0.00 0.00 0.00 0.00 0.00 0.01 0.01 0.01
0.29 0.28 0.23 0.20 0.14 0.08 0.06 0.02 0.01 0.01 0.00 0.00 0.00 0.00 0.00 0.00 0.00 0.00 0.00 0.00 0.00 0.00 0.00 0.00 0.00 0.00 0.00 0.00 0.00 0.00 0.00 0.00 0.00 0.00 0.00 0.00 0.00 0.00 0.00 0.00 0.00 0.01 0.01
0.25 0.26 0.24 0.22 0.15 0.12 0.07 0.04 0.02 0.01 0.00 0.00 0.00 0.00 0.00 0.00 0.00 0.00 0.00 0.00 0.00 0.00 0.00 0.00 0.00 0.00 0.00 0.00 0.00 0.00 0.00 0.00 0.00 0.00 0.00 0.00 0.00 0.00 0.00 0.00 0.01 0.01 0.02
0.25 0.28 0.24 0.21 0.18 0.14 0.11 0.08 0.04 0.02 0.01 0.00 0.00 0.00 0.00 0.00 0.00 0.00 0.00 0.00 0.00 0.00 0.00 0.00 0.00 0.00 0.00 0.00 0.00 0.00 0.00 0.00 0.00 0.00 0.00 0.00 0.00 0.00 0.00 0.00 0.00 0.01 0.01
0.31 0.29 0.27 0.24 0.21 0.17 0.14 0.11 0.07 0.05 0.03 0.02 0.01 0.01 0.01 0.00 0.00 0.00 0.00 0.00 0.00 0.00 0.00 0.00 0.00 0.00 0.00 0.00 0.00 0.00 0.00 0.00 0.00 0.00 0.00 0.00 0.00 0.00 0.00 0.00 0.00 0.00 0.01
0.34 0.33 0.31 0.28 0.24 0.21 0.18 0.15 0.12 0.09 0.06 0.05 0.04 0.03 0.02 0.01 0.01 0.00 0.00 0.00 0.00 0.00 0.00 0.00 0.00 0.00 0.00 0.00 0.00 0.00 0.00 0.00 0.00 0.00 0.00 0.00 0.00 0.00 0.00 0.00 0.00 0.00 0.00
0.36 0.35 0.35 0.32 0.30 0.29 0.27 0.22 0.18 0.13 0.09 0.08 0.07 0.07 0.05 0.04 0.03 0.02 0.01 0.01 0.01 0.00 0.00 0.00 0.00 0.00 0.00 0.00 0.00 0.00 0.00 0.00 0.00 0.00 0.00 0.00 0.00 0.00 0.00 0.00 0.00 0.00 0.00
0.42 0.40 0.36 0.34 0.33 0.34 0.32 0.29 0.25 0.19 0.14 0.13 0.12 0.11 0.09 0.08 0.07 0.05 0.04 0.03 0.02 0.02 0.01 0.01 0.01 0.01 0.01 0.00 0.00 0.00 0.00 0.00 0.00 0.00 0.00 0.00 0.00 0.00 0.00 0.00 0.00 0.00 0.00
0.35 0.40 0.39 0.39 0.42 0.38 0.34 0.33 0.33 0.30 0.23 0.19 0.17 0.15 0.13 0.13 0.12 0.09 0.07 0.06 0.04 0.03 0.03 0.02 0.01 0.01 0.01 0.01 0.00 0.00 0.00 0.00 0.00 0.00 0.00 0.00 0.00 0.00 0.00 0.00 0.00 0.00 0.00
0.23 0.32 0.41 0.41 0.44 0.42 0.38 0.39 0.42 0.42 0.35 0.27 0.20 0.19 0.20 0.20 0.21 0.17 0.14 0.12 0.10 0.07 0.05 0.04 0.03 0.03 0.02 0.01 0.00 0.00 0.00 0.00 0.00 0.00 0.00 0.00 0.00 0.00 0.00 0.00 0.00 0.00 0.00
0.13 0.20 0.30 0.37 0.44 0.45 0.42 0.41 0.43 0.43 0.39 0.30 0.24 0.21 0.21 0.23 0.25 0.25 0.23 0.20 0.17 0.13 0.10 0.08 0.06 0.04 0.03 0.01 0.01 0.00 0.00 0.00 0.00 0.00 0.00 0.00 0.00 0.00 0.00 0.00 0.00 0.00 0.00
0.07 0.13 0.20 0.25 0.32 0.36 0.40 0.44 0.46 0.44 0.41 0.38 0.33 0.31 0.28 0.27 0.25 0.25 0.25 0.23 0.22 0.18 0.14 0.12 0.10 0.07 0.04 0.02 0.01 0.01 0.00 0.00 0.00 0.00 0.00 0.00 0.00 0.00 0.00 0.00 0.00 0.00 0.00
0.03 0.05 0.10 0.15 0.22 0.28 0.34 0.40 0.45 0.44 0.42 0.37 0.34 0.34 0.34 0.32 0.29 0.25 0.22 0.21 0.20 0.18 0.16 0.13 0.11 0.08 0.06 0.04 0.03 0.01 0.01 0.01 0.01 0.01 0.01 0.00 0.00 0.00 0.00 0.00 0.00 0.00 0.00
MSLP
1011.86 1012.11 1012.46 1012.87 1013.28 1013.64 1013.91 1014.05 1014.10 1014.06 1014.01 1014.00 1014.05 1014.20 1014.43 1014.72 1015.04 1015.34 1015.59 1015.80 1015.97 1016.11 1016.25 1016.40 1016.58 1016.76 1016.94 1017.11 1017.23 1017.31 1017.34 1017.35 1017.33 1017.31 1017.30 1017.30 1017.30 1017.29 1017.28 1017.25 1017.20 1017.14 1017.09
1011.51 1011.83 1012.27 1012.77 1013.27 1013.69 1014.00 1014.17 1014.22 1014.17 1014.11 1014.07 1014.12 1014.27 1014.51 1014.83 1015.16 1015.49 1015.77 1016.00 1016.18 1016.34 1016.50 1016.67 1016.86 1017.06 1017.25 1017.42 1017.55 1017.62 1017.65 1017.65 1017.63 1017.61 1017.61 1017.62 1017.63 1017.63 1017.61 1017.57 1017.50 1017.43 1017.36
1011.13 1011.51 1012.03 1012.62 1013.20 1013.70 1014.07 1014.28 1014.35 1014.32 1014.25 1014.21 1014.26 1014.41 1014.65 1014.97 1015.31 1015.65 1015.94 1016.18 1016.38 1016.56 1016.74 1016.93 1017.15 1017.36 1017.57 1017.74 1017.85 1017.92 1017.93 1017.91 1017.89 1017.87 1017.88 1017.90 1017.93 1017.95 1017.94 1017.90 1017.84 1017.76 1017.68
1010.79 1011.23 1011.81 1012.47 1013.13 1013.70 1014.12 1014.38 1014.48 1014.48 1014.43 1014.41 1014.46 1014.61 1014.85 1015.16 1015.50 1015.83 1016.12 1016.36 1016.58 1016.78 1016.98 1017.20 1017.44 1017.67 1017.88 1018.05 1018.15 1018.19 1018.18 1018.15 1018.11 1018.09 1018.11 1018.15 1018.20 1018.25 1018.26 1018.24 1018.18 1018.11 1018.03
1010.58 1011.06 1011.68 1012.39 1013.08 1013.70 1014.16 1014.46 1014.60 1014.64 1014.62 1014.63 1014.70 1014.86 1015.11 1015.41 1015.73 1016.05 1016.33 1016.57 1016.79 1017.00 1017.23 1017.48 1017.73 1017.98 1018.20 1018.36 1018.44 1018.46 1018.42 1018.37 1018.32 1018.30 1018.32 1018.38 1018.46 1018.53 1018.57 1018.58 1018.54 1018.47 1018.39
1010.55 1011.05 1011.69 1012.40 1013.10 1013.72 1014.20 1014.52 1014.70 1014.77 1014.80 1014.85 1014.96 1015.15 1015.40 1015.71 1016.02 1016.32 1016.58 1016.82 1017.04 1017.26 1017.50 1017.76 1018.03 1018.29 1018.50 1018.65 1018.72 1018.72 1018.66 1018.58 1018.52 1018.50 1018.53 1018.60 1018.70 1018.80 1018.87 1018.90 1018.88 1018.82 1018.74
1010.71 1011.21 1011.83 1012.52 1013.18 1013.77 1014.23 1014.55 1014.75 1014.87 1014.95 1015.06 1015.22 1015.45 1015.73 1016.04 1016.35 1016.63 1016.89 1017.11 1017.32 1017.53 1017.77 1018.04 1018.31 1018.57 1018.79 1018.93 1018.98 1018.96 1018.89 1018.80 1018.73 1018.71 1018.74 1018.83 1018.94 1019.06 1019.15 1019.20 1019.19 1019.14 1019.07
1011.02 1011.51 1012.09 1012.72 1013.31 1013.84 1014.25 1014.55 1014.75 1014.91 1015.05 1015.23 1015.45 1015.73 1016.05 1016.39 1016.70 1016.98 1017.21 1017.42 1017.61 1017.82 1018.04 1018.30 1018.57 1018.82 1019.02 1019.15 1019.20 1019.18 1019.10 1019.01 1018.94 1018.92 1018.96 1019.05 1019.18 1019.30 1019.41 1019.46 1019.47 1019.43 1019.35
1011.39 1011.87 1012.41 1012.95 1013.46 1013.89 1014.24 1014.50 1014.71 1014.89 1015.09 1015.34 1015.63 1015.98 1016.34 1016.71 1017.03 1017.31 1017.53 1017.72 1017.89 1018.07 1018.28 1018.51 1018.76 1018.99 1019.18 1019.31 1019.36 1019.34 1019.27 1019.19 1019.13 1019.12 1019.16 1019.26 1019.39 1019.52 1019.62 1019.68 1019.69 1019.65 1019.58
1011.73 1012.20 1012.69 1013.15 1013.56 1013.91 1014.18 1014.41 1014.61 1014.83 1015.08 1015.39 1015.75 1016.16 1016.57 1016.96 1017.30 1017.58 1017.80 1017.97 1018.12 1018.28 1018.46 1018.66 1018.87 1019.08 1019.25 1019.37 1019.42 1019.41 1019.36 1019.30 1019.26 1019.27 1019.32 1019.42 1019.55 1019.68 1019.78 1019.84 1019.85 1019.81 1019.74
1011.97 1012.44 1012.88 1013.27 1013.59 1013.86 1014.07 1014.27 1014.47 1014.71 1015.01 1015.38 1015.79 1016.25 1016.69 1017.11 1017.47 1017.75 1017.97 1018.13 1018.27 1018.40 1018.55 1018.72 1018.90 1019.07 1019.22 1019.33 1019.38 1019.39 1019.36 1019.33 1019.32 1019.34 1019.41 1019.51 1019.64 1019.76 1019.85 1019.91 1019.92 1019.88 1019.82
1012.07 1012.53 1012.93 1013.26 1013.52 1013.73 1013.90 1014.08 1014.30 1014.56 1014.90 1015.30 1015.76 1016.24 1016.71 1017.14 1017.50 1017.80 1018.01 1018.18 1018.31 1018.43 1018.55 1018.69 1018.83 1018.98 1019.10 1019.19 1019.25 1019.27 1019.26 1019.26 1019.28 1019.32 1019.40 1019.51 1019.63 1019.74 1019.83 1019.88 1019.88 1019.85 1019.79
1012.03 1012.47 1012.84 1013.12 1013.34 1013.52 1013.68 1013.87 1014.10 1014.39 1014.76 1015.19 1015.66 1016.14 1016.61 1017.04 1017.41 1017.70 1017.93 1018.10 1018.24 1018.36 1018.47 1018.59 1018.71 1018.82 1018.92 1018.99 1019.04 1019.07 1019.08 1019.10 1019.14 1019.20 1019.29 1019.39 1019.51 1019.61 1019.69 1019.73 1019.74 1019.71 1019.67
1011.87 1012.29 1012.63 1012.88 1013.08 1013.26 1013.43 1013.64 1013.90 1014.22 1014.61 1015.04 1015.50 1015.97 1016.42 1016.83 1017.19 1017.49 1017.73 1017.93 1018.08 1018.22 1018.34 1018.44 1018.55 1018.63 1018.70 1018.76 1018.80 1018.82 1018.84 1018.87 1018.92 1018.99 1019.08 1019.18 1019.29 1019.38 1019.45 1019.48 1019.49 1019.47 1019.43
1011.67 1012.05 1012.35 1012.58 1012.77 1012.96 1013.17 1013.42 1013.72 1014.07 1014.46 1014.89 1015.32 1015.76 1016.17 1016.55 1016.89 1017.20 1017.46 1017.68 1017.87 1018.03 1018.17 1018.29 1018.38 1018.45 1018.50 1018.53 1018.55 1018.57 1018.59 1018.62 1018.67 1018.73 1018.82 1018.91 1019.00 1019.07 1019.13 1019.16 1019.16 1019.14 1019.11
1011.46 1011.79 1012.05 1012.26 1012.46 1012.67 1012.92 1013.22 1013.56 1013.94 1014.34 1014.74 1015.14 1015.53 1015.89 1016.24 1016.56 1016.86 1017.14 1017.40 1017.63 1017.83 1018.00 1018.13 1018.23 1018.29 1018.33 1018.34 1018.35 1018.35 1018.36 1018.38 1018.42 1018.48 1018.54 1018.62 1018.69 1018.74 1018.78 1018.80 1018.79 1018.77 1018.74
1011.30 1011.55 1011.76 1011.95 1012.16 1012.41 1012.71 1013.05 1013.43 1013.83 1014.23 1014.62 1014.97 1015.31 1015.62 1015.93 1016.23 1016.53 1016.83 1017.12 1017.40 1017.64 1017.84 1018.00 1018.11 1018.17 1018.20 1018.20 1018.20 1018.19 1018.18 1018.20 1018.22 1018.26 1018.31 1018.36 1018.40 1018.44 1018.45 1018.45 1018.43 1018.40 1018.37
1011.17 1011.35 1011.51 1011.68 1011.90 1012.18 1012.52 1012.91 1013.33 1013.75 1014.14 1014.50 1014.82 1015.11 1015.38 1015.65 1015.94 1016.24 1016.55 1016.87 1017.18 1017.46 1017.69 1017.87 1018.00 1018.08 1018.11 1018.11 1018.10 1018.09 1018.08 1018.09 1018.10 1018.12 1018.15 1018.17 1018.19 1018.20 1018.19 1018.17 1018.13 1018.09 1018.05
1011.06 1011.18 1011.29 1011.44 1011.67 1011.97 1012.35 1012.78 1013.22 1013.65 1014.05 1014.39 1014.67 1014.93 1015.17 1015.41 1015.67 1015.97 1016.30 1016.64 1016.97 1017.28 1017.54 1017.75 1017.89 1017.99 1018.04 1018.06 1018.06 1018.06 1018.06 1018.06 1018.07 1018.08 1018.08 1018.09 1018.08 1018.06 1018.03 1017.99 1017.93 1017.87 1017.82
1010.92 1010.99 1011.08 1011.23 1011.46 1011.78 1012.19 1012.64 1013.10 1013.53 1013.92 1014.25 1014.51 1014.74 1014.96 1015.19 1015.44 1015.74 1016.07 1016.42 1016.76 1017.08 1017.36 1017.59 1017.76 1017.88 1017.96 1018.01 1018.04 1018.06 1018.08 1018.10 1018.11 1018.11 1018.11 1018.09 1018.06 1018.02 1017.97 1017.91 1017.84 1017.77 1017.71
1010.72 1010.77 1010.85 1011.00 1011.25 1011.59 1012.01 1012.47 1012.93 1013.37 1013.75 1014.06 1014.31 1014.53 1014.74 1014.97 1015.22 1015.52 1015.85 1016.20 1016.54 1016.87 1017.15 1017.40 1017.59 1017.74 1017.86 1017.95 1018.02 1018.09 1018.14 1018.18 1018.20 1018.21 1018.20 1018.17 1018.13 1018.07 1018.01 1017.93 1017.86 1017.78 1017.72
1010.46 1010.52 1010.62 1010.79 1011.05 1011.40 1011.82 1012.28 1012.73 1013.15 1013.51 1013.82 1014.07 1014.29 1014.50 1014.73 1014.99 1015.28 1015.61 1015.95 1016.29 1016.61 1016.90 1017.15 1017.37 1017.56 1017.72 1017.86 1017.99 1018.10 1018.20 1018.27 1018.31 1018.33 1018.32 1018.29 1018.24 1018.18 1018.11 1018.04 1017.96 1017.90 1017.84
1010.17 1010.26 1010.38 1010.58 1010.86 1011.22 1011.63 1012.07 1012.49 1012.89 1013.23 1013.52 1013.77 1013.99 1014.22 1014.46 1014.73 1015.03 1015.35 1015.68 1016.01 1016.32 1016.61 1016.87 1017.11 1017.34 1017.55 1017.75 1017.93 1018.10 1018.23 1018.34 1018.40 1018.43 1018.43 1018.40 1018.35 1018.30 1018.24 1018.18 1018.13 1018.09 1018.05
1009.92 1010.04 1010.21 1010.43 1010.72 1011.07 1011.46 1011.87 1012.25 1012.61 1012.92 1013.19 1013.43 1013.66 1013.90 1014.15 1014.44 1014.74 1015.06 1015.39 1015.70 1016.01 1016.29 1016.57 1016.83 1017.09 1017.35 1017.60 1017.84 1018.06 1018.23 1018.37 1018.46 1018.50 1018.50 1018.48 1018.44 1018.40 1018.37 1018.34 1018.33 1018.32 1018.33
1009.78 1009.94 1010.14 1010.38 1010.67 1011.00 1011.36 1011.71 1012.04 1012.34 1012.61 1012.85 1013.07 1013.30 1013.55 1013.82 1014.12 1014.44 1014.76 1015.08 1015.39 1015.68 1015.97 1016.26 1016.55 1016.84 1017.14 1017.44 1017.73 1017.99 1018.20 1018.36 1018.46 1018.52 1018.53 1018.52 1018.50 1018.48 1018.48 1018.50 1018.53 1018.58 1018.64
1009.84 1010.02 1010.22 1010.47 1010.74 1011.04 1011.34 1011.63 1011.89 1012.12 1012.33 1012.53 1012.73 1012.96 1013.21 1013.49 1013.80 1014.12 1014.45 1014.77 1015.07 1015.37 1015.67 1015.97 1016.28 1016.61 1016.95 1017.29 1017.61 1017.90 1018.13 1018.31 1018.43 1018.49 1018.51 1018.52 1018.52 1018.54 1018.58 1018.64 1018.73 1018.84 1018.96
Thickness
5766 5765 5760 5759 5757 5757 5756 5756 5755 5755 5755 5755 5754 5753 5751 5749 5748 5747 5745 5744 5742 5740 5739 5737 5736 5735 5733 5732 5731 5730 5729 5728 5727 5726 5726 5726 5725 5725 5724 5724 5725 5723 5721
5765 5761 5755 5754 5753 5753 5752 5752 5752 5752 5752 5752 5751 5750 5749 5747 5745 5744 5743 5741 5739 5737 5736 5734 5733 5731 5730 5728 5727 5726 5725 5724 5723 5723 5723 5723 5722 5721 5720 5720 5720 5719 5718
5760 5757 5751 5750 5749 5749 5748 5748 5748 5748 5749 5749 5748 5747 5746 5744 5742 5741 5739 5737 5736 5734 5732 5731 5729 5728 5726 5725 5723 5722 5721 5720 5720 5720 5722 5722 5719 5717 5717 5716 5716 5715 5714
5753 5751 5748 5745 5745 5744 5744 5744 5744 5745 5745 5745 5745 5744 5742 5740 5739 5737 5735 5734 5732 5730 5729 5726 5725 5724 5722 5721 5720 5719 5718 5717 5717 5719 5721 5720 5717 5714 5714 5713 5713 5712 5711
5745 5744 5742 5739 5739 5739 5739 5739 5740 5740 5741 5741 5741 5740 5738 5736 5735 5733 5731 5729 5728 5726 5724 5722 5721 5720 5719 5717 5716 5715 5714 5713 5714 5717 5717 5716 5713 5710 5710 5709 5709 5708 5707
5737 5737 5735 5733 5733 5733 5734 5734 5735 5735 5736 5736 5736 5735 5734 5732 5730 5728 5726 5724 5723 5721 5720 5719 5717 5716 5715 5714 5713 5712 5710 5710 5713 5714 5713 5712 5710 5707 5706 5706 5705 5704 5703
5729 5729 5728 5727 5727 5727 5728 5729 5730 5730 5730 5731 5730 5729 5728 5727 5725 5723 5721 5719 5718 5717 5716 5715 5713 5712 5711 5710 5709 5708 5707 5708 5711 5710 5709 5708 5705 5703 5703 5702 5701 5700 5699
5720 5721 5720 5719 5720 5721 5722 5723 5724 5724 5725 5725 5725 5724 5723 5721 5720 5718 5716 5715 5713 5712 5711 5710 5709 5708 5707 5707 5705 5704 5704 5705 5706 5706 5706 5704 5701 5700 5699 5698 5697 5696 5695
5711 5713 5713 5713 5714 5714 5715 5716 5717 5718 5719 5719 5719 5718 5717 5715 5714 5712 5711 5710 5709 5708 5707 5706 5705 5704 5703 5703 5702 5701 5701 5701 5705 5704 5702 5701 5698 5697 5696 5695 5694 5693 5692
5701 5703 5706 5707 5709 5710 5710 5710 5711 5712 5712 5713 5712 5712 5710 5709 5708 5706 5706 5705 5704 5703 5702 5701 5701 5700 5699 5699 5698 5698 5698 5699 5701 5700 5700 5697 5695 5694 5693 5692 5691 5690 5688
5690 5694 5697 5700 5703 5705 5705 5704 5705 5705 5706 5706 5705 5705 5704 5704 5703 5701 5701 5699 5699 5698 5697 5697 5696 5696 5695 5695 5695 5695 5695 5698 5698 5697 5696 5693 5692 5691 5691 5690 5688 5687 5686
5679 5684 5687 5692 5696 5698 5700 5699 5700 5701 5700 5701 5701 5700 5700 5700 5699 5698 5694 5693 5693 5693 5692 5692 5692 5692 5693 5694 5692 5692 5695 5695 5695 5694 5693 5690 5689 5689 5688 5687 5686 5684 5683
5672 5676 5679 5683 5688 5691 5693 5695 5696 5697 5696 5696 5697 5696 5695 5694 5693 5692 5691 5689 5689 5689 5690 5688 5689 5691 5691 5691 5691 5692 5692 5692 5692 5692 5690 5687 5686 5686 5685 5684 5684 5682 5680
5664 5668 5673 5677 5680 5683 5687 5689 5691 5692 5692 5692 5691 5691 5690 5690 5689 5689 5688 5688 5687 5687 5687 5687 5687 5688 5688 5688 5688 5689 5689 5689 5689 5688 5687 5684 5683 5683 5682 5681 5680 5679 5678
5658 5661 5666 5671 5674 5676 5680 5683 5685 5686 5686 5687 5686 5686 5686 5685 5685 5685 5684 5683 5684 5683 5683 5683 5684 5685 5685 5685 5684 5685 5685 5686 5686 5685 5685 5682 5680 5680 5679 5678 5677 5676 5675
5652 5655 5660 5663 5667 5670 5673 5676 5678 5679 5680 5681 5681 5681 5681 5681 5681 5680 5680 5679 5679 5679 5679 5679 5680 5680 5681 5681 5681 5681 5681 5681 5682 5681 5681 5680 5678 5676 5675 5674 5674 5672 5671
5648 5651 5654 5657 5661 5664 5666 5669 5671 5672 5674 5675 5675 5676 5676 5676 5676 5676 5676 5675 5675 5674 5674 5675 5675 5675 5675 5675 5676 5677 5677 5677 5677 5677 5677 5676 5675 5673 5671 5670 5669 5668 5666
5642 5646 5649 5651 5654 5657 5659 5661 5664 5666 5668 5669 5670 5670 5671 5671 5671 5671 5671 5671 5671 5670 5669 5670 5671 5671 5671 5671 5672 5673 5672 5671 5672 5672 5671 5670 5670 5668 5667 5665 5663 5662 5660
5636 5641 5644 5647 5650 5653 5654 5655 5657 5658 5660 5663 5664 5665 5665 5666 5666 5666 5667 5667 5666 5665 5665 5665 5666 5667 5666 5665 5666 5666 5667 5667 5667 5665 5666 5664 5663 5661 5660 5658 5656 5655 5653
5632 5636 5639 5642 5645 5647 5648 5649 5650 5652 5654 5656 5659 5660 5660 5661 5661 5662 5662 5662 5662 5661 5661 5660 5660 5660 5660 5660 5659 5659 5660 5661 5660 5660 5659 5657 5655 5654 5653 5652 5650 5648 5645
5627 5631 5635 5638 5641 5642 5644 5645 5646 5647 5650 5652 5653 5654 5654 5656 5656 5657 5657 5657 5657 5657 5657 5656 5655 5654 5653 5653 5652 5652 5654 5654 5654 5652 5651 5650 5648 5646 5644 5643 5641 5639 5637
5624 5628 5632 5636 5639 5641 5643 5645 5646 5647 5647 5648 5649 5649 5649 5650 5651 5652 5653 5653 5652 5652 5651 5651 5649 5648 5646 5645 5646 5645 5645 5647 5645 5643 5642 5640 5639 5637 5635 5633 5631 5629 5627
5621 5625 5630 5632 5635 5637 5640 5641 5641 5641 5640 5641 5643 5644 5645 5646 5646 5647 5647 5648 5647 5647 5646 5645 5644 5642 5641 5639 5640 5639 5638 5640 5639 5637 5633 5631 5629 5628 5626 5623 5620 5618 5615
5617 5621 5625 5628 5631 5632 5635 5637 5637 5637 5638 5640 5641 5640 5641 5641 5641 5642 5642 5641 5641 5641 5640 5639 5638 5637 5635 5633 5631 5632 5633 5633 5629 5630 5627 5623 5620 5618 5616 5612 5610 5607 5604
5614 5617 5620 5624 5626 5628 5630 5632 5633 5634 5635 5635 5634 5633 5634 5634 5635 5635 5635 5636 5635 5634 5633 5631 5630 5629 5628 5627 5626 5624 5622 5621 5620 5619 5620 5618 5613 5609 5606 5603 5600 5597 5593
5609 5612 5616 5619 5621 5623 5625 5627 5628 5629 5629 5628 5628 5628 5628 5628 5628 5629 5628 5628 5627 5626 5625 5623 5621 5621 5620 5619 5618 5616 5615 5614 5612 5610 5609 5609 5606 5602 5596 5592 5589 5585 5581